Weather History for KHON - March, 2013

Change the Weather History Date:

Saturday, March 2, 2013

  Actual Average Record
Temperature  
Mean Temperature 17 °F 27 °F  
Max Temperature 29 °F 37 °F 73 °F (1974)
Min Temperature 4 °F 17 °F -20 °F (1913)
Degree Days  
Heating Degree Days 48 38  
Month to date heating degree days 97 76  
Since 1 July heating degree days 5923 5908  
Cooling Degree Days 0 0  
Month to date cooling degree days 0 0  
Year to date cooling degree days 0 0  
Moisture  
Dew Point 14 °F    
Average Humidity 85    
Maximum Humidity 100    
Minimum Humidity 69    
Precipitation  
Precipitation 0.00 in 0.03 in 1.04 in (1906)
Month to date precipitation 0.00 0.06  
Year to date precipitation 1.38 1.16  
Snow  
Snow 0.00 in 0.40 in 9.10 in (1906)
Month to date snowfall 0.0 0.7  
Since 1 July snowfall 33.2 31.7  
Snow Depth 6.00 in    
Sea Level Pressure  
Sea Level Pressure 30.24 in    
Wind  
Wind Speed 9 mph (SSE)    
Max Wind Speed 20 mph    
Max Gust Speed 25 mph    
Visibility 8 miles    
Events      
T = Trace of Precipitation, MM = Missing Value Source: NWS Daily Summary

Daily Weather History Graph

Daily Weather History Graph

Search for Another Location

Airport or City:

Trip Planner

Search our weather history database for the weather conditions in past years. The results will help you decide how hot, cold, wet, or windy it might be!

Date:

Astronomy

Mar. 02, 2013 Rise Set
Actual Time 7:07 AM CST 6:22 PM CST
Civil Twilight 6:38 AM CST 6:51 PM CST
Nautical Twilight 6:05 AM CST 7:25 PM CST
Astronomical Twilight 5:31 AM CST 7:59 PM CST
Moon No Moon Rise 9:23 AM CST (3/2)
Length of Visible Light 12h 12m
Length of Day
11h 14m
Waning Gibbous, 74% of the Moon is Illuminated
Mar 2
Waning Gibbous
Mar 4
Last Quarter
Mar 11
New
Mar 19
First Quarter
Mar 27
Full

Hourly Weather History & Observations

Time (CST) Temp. Windchill Dew Point Humidity Pressure Visibility Wind Dir Wind Speed Gust Speed Precip Events Conditions
12:05 AM 8.6 °F - 6.8 °F 92% 30.33 in 2.5 mi Calm Calm - N/A   Partly Cloudy
12:12 AM 8.6 °F - 6.8 °F 92% 30.33 in 5.0 mi Calm Calm - N/A   Partly Cloudy
12:55 AM 6.8 °F - 3.2 °F 85% 30.34 in 7.0 mi Calm Calm - N/A   Clear
1:29 AM 5.0 °F - 3.2 °F 92% 30.34 in 5.0 mi Calm Calm - N/A   Partly Cloudy
1:51 AM 5.0 °F - 1.4 °F 85% 30.33 in 6.0 mi Calm Calm - N/A   Mostly Cloudy
1:55 AM 5.0 °F - 1.9 °F 87% 30.41 in 6.0 mi Calm Calm - N/A   Mostly Cloudy
2:29 AM 6.8 °F -0.1 °F 3.2 °F 85% 30.33 in 1.8 mi SW 3.5 mph - N/A   Overcast
2:55 AM 7.0 °F 0.1 °F 5.0 °F 92% 30.38 in 3.0 mi South 3.5 mph - N/A   Overcast
3:55 AM 9.0 °F 0.6 °F 6.1 °F 88% 30.38 in 7.0 mi SSW 4.6 mph - N/A   Overcast
4:55 AM 12.0 °F 5.9 °F 10.0 °F 92% 30.35 in 8.0 mi SSE 3.5 mph - N/A   Overcast
5:55 AM 12.9 °F 2.6 °F 10.0 °F 88% 30.34 in 8.0 mi SSE 6.9 mph - N/A   Overcast
6:55 AM 15.1 °F 5.2 °F 12.0 °F 88% 30.32 in 8.0 mi SSE 6.9 mph - N/A   Overcast
7:55 AM 16.0 °F 4.4 °F 14.0 °F 92% 30.30 in 7.0 mi SSE 9.2 mph - N/A   Overcast
8:55 AM 19.0 °F 8.2 °F 16.0 °F 88% 30.30 in 10.0 mi SSE 9.2 mph - N/A   Overcast
9:55 AM 19.9 °F 9.3 °F 17.1 °F 89% 30.29 in 10.0 mi SSE 9.2 mph - N/A   Overcast
10:55 AM 21.9 °F 9.2 °F 17.1 °F 82% 30.25 in 10.0 mi SE 13.8 mph 20.7 mph N/A   Overcast
11:55 AM 25.0 °F 11.7 °F 18.0 °F 75% 30.24 in 10.0 mi SSE 17.3 mph 24.2 mph N/A   Overcast
12:55 PM 27.0 °F 13.9 °F 19.0 °F 72% 30.22 in 10.0 mi SSE 18.4 mph 25.3 mph N/A   Overcast
1:55 PM 28.0 °F 16.5 °F 19.0 °F 69% 30.17 in 10.0 mi SSE 15.0 mph 24.2 mph N/A   Partly Cloudy
2:55 PM 28.9 °F 17.7 °F 19.9 °F 69% 30.17 in 10.0 mi SSE 15.0 mph 19.6 mph N/A   Scattered Clouds
3:55 PM 28.9 °F 18.2 °F 21.0 °F 72% 30.15 in 10.0 mi SSE 13.8 mph - N/A   Clear
4:55 PM 28.0 °F 17.5 °F 19.9 °F 72% 30.14 in 10.0 mi SSE 12.7 mph - N/A   Clear
5:55 PM 27.0 °F 17.3 °F 19.9 °F 75% 30.13 in 10.0 mi SSE 10.4 mph - N/A   Clear
6:55 PM 27.0 °F 16.7 °F 19.9 °F 75% 30.13 in 10.0 mi SSE 11.5 mph - N/A   Clear
7:55 PM 27.0 °F 18.7 °F 21.0 °F 78% 30.11 in 10.0 mi SSE 8.1 mph - N/A   Clear
8:55 PM 26.1 °F 17.6 °F 19.9 °F 78% 30.09 in 10.0 mi SSE 8.1 mph - N/A   Clear
9:55 PM 25.0 °F 16.3 °F 19.9 °F 81% 30.08 in 10.0 mi SSE 8.1 mph - N/A   Clear
10:55 PM 24.1 °F 16.0 °F 19.9 °F 84% 30.07 in 10.0 mi SE 6.9 mph - N/A   Clear
11:55 PM 21.9 °F 15.7 °F 19.0 °F 89% 30.05 in 10.0 mi SE 4.6 mph - N/A   Clear